Cabot Strait: Past 24 Hour Conditions

 

Winterland

02:30 PM NDT 22 July 2014
This table is a summary of hourly weather conditions for the past 24 hours.
Date / Time
(NDT)
Wind(knots) Conditions Visibility(km) Pressure(kPa) Air tempC) Relative humidity(%) Dew pointC) Humidex
22 July 2014
14:30 W 17 Sunny 15 101.5 21 57 12 *
13:30 W 15 Sunny 15 101.5 23 39 8 *
12:30 WNW 15 Sunny 15 101.5 22 46 10 *
11:30 WNW 11 Mainly Sunny 15 101.5 22 46 10 *
10:30 WNW 11 Sunny 15 101.6 21 50 10 *
9:30 WNW 11 Sunny 15 101.6 20 53 10 *
8:30 WNW 8 Mainly Sunny 15 101.6 17 62 9 *
7:30 WNW 4 Sunny 15 101.6 14 71 9 *
6:30 WNW 6 Sunny 15 101.7 14 71 8 *
5:30 WNW 5 Clear 15 101.7 13 75 9 *
4:30 WNW 7 Clear 15 101.7 13 73 9 *
3:30 WNW 6 Clear 15 101.7 13 74 8 *
2:30 WNW 7 Clear 15 101.7 13 74 8 *
1:30 WNW 6 Clear 15 101.8 13 73 8 *
0:30 WNW 4 Clear 15 101.8 13 73 9 *
21 July 2014
23:30 WNW 7 Clear 15 101.9 14 71 9 *
22:30 W 4 Clear 15 101.9 15 72 10 *
21:30 WNW 9 Clear 15 101.9 16 68 10 *
20:30 WNW 6 Sunny 15 101.9 17 68 11 *
19:30 WNW 9 Sunny 15 101.9 18 65 11 *
18:30 WNW 10 Sunny 15 101.9 19 57 10 *
17:30 WNW 12 Sunny 15 102.0 21 47 9 *
16:30 W 11 Sunny 15 102.0 22 48 10 *
15:30 WNW 13 Sunny 15 102.0 22 54 13 25
14:30 W 9 Sunny 15 102.1 24 51 13 27
 
Map of Atlantic - Newfoundland marine weather areas Southwestern Grand Banks - 44138 Banquereau - 44139 Tail of the Bank - 44140 Nickerson Bank - 44251 Northeast Burgeo Bank - 44255 Blanc-Sablon Airport Cap Whittle Chevery Natashquan Airport Heath Point Miscou Island Grand Étang Ingonish Beach North Mountain St.Paul Island J.A. Douglas McCurdy Sydney Airport Charlottetown Airport East Point North Cape Argentia Bonavista Burgeo Cape Race Corner Brook Daniel's Harbour Englee Ferolle Point La Scie Port aux Basques Rocky Harbour Sagona Island St. Anthony Airport St. John's Int'l Airport St. Lawrence Stephenville Airport Twillingate Winterland Wreckhouse Cartwright Airport Mary's Harbour Grates Cove Pool's Island Marticot Island Long Pond Îles de la Madeleine Airport
Legend: buoyBuoy land stationLand Station